Location: R�o Tuerlos
(40.6704°N, 4.4622°W)
Time: 04:14:40
(UTC+00:00)

Resurs 1-4 Rocket - Pass Details

Date: 07 June 2020
Orbit: 800 x 813 km, 98.6° (Epoch: 10 July)

Event Time Altitude Azimuth Distance (km) Brightness Sun altitude
Rises 01:35:54 0° 17° (NNE) 3,336 6.7 -23.9°
Reaches altitude 10° 01:38:17 10° 21° (NNE) 2,402 5.7 -23.8°
Maximum altitude 01:43:31 58° 101° (E) 942 2.4 -23.4°
Enters shadow 01:44:54 44° 152° (SSE) 1,105 2.5 -23.3°
